Main page
METAR-TAF:

METAR-TAF

Airports :

Atlantic Municipal Airport

Atlantic, Iowa, United States

latitude: 41-24N, longitude: 095-03W, elevation: 1181 ft

Current weather observation

The report was made 32 minutes ago, at 11:15 UTC
Wind 5 mph from the Southwest
Temperature 54°F
Humidity 94%
Pressure 29.86 in. Hg
Visibility: 10 miles
Clear sky

METAR: KAIO 231115Z AUTO 22004KT 10SM CLR 12/11 A2986 RMK AO2

Time: 06:47 (11:47 UTC)


TAF: missing

Weather observations and forecasts of more than 4000 airports (METAR and TAF reports).

The available stations are represented by yellow and red dots on the map.

Hover mouse over dot to see the name of the station.

Then click to see weather observations and forecasts.

To change the map : click on the green buttons with a black cross to zoom in, on the green button with a dash to zoom out, or on the green arrows for adjacent maps.


METAR-TAF: